Le Raizet Airport, Guadeloupe

10:24 AM AST on June 22, 2018 (GMT -0400)
Le Raizet

Weather History for TFFR - September, 2017

Change the Weather History Date:

Thursday, September 14, 2017

  Actual Average Record
Temperature  
Mean Temperature 81 °F -  
Max Temperature 87 °F 87 °F 91 °F (1998)
Min Temperature 75 °F 74 °F 71 °F (2010)
Cooling Degree Days 16    
Growing Degree Days 31 (Base 50)    
Moisture  
Dew Point 76 °F    
Average Humidity 89    
Maximum Humidity 100    
Minimum Humidity 70    
Precipitation  
Precipitation 0.91 in 0.30 in - ()
Sea Level Pressure  
Sea Level Pressure 29.96 in    
Wind  
Wind Speed 6 mph ()    
Max Wind Speed 16 mph    
Max Gust Speed -    
Visibility 6.0 miles    
Events Fog , Rain , Thunderstorm    
Averages and records for this station are not official NWS values.
T = Trace of Precipitation, MM = Missing Value Source: Averaged Metar Reports

Daily Weather History Graph

Daily Weather History Graph

Search for Another Location

Airport or City:

Astronomy

Sep. 14, 2017 Rise Set
Actual Time 5:54 AM AST 6:08 PM AST
Civil Twilight 5:32 AM AST 6:30 PM AST
Nautical Twilight 5:07 AM AST 6:55 PM AST
Astronomical Twilight 4:42 AM AST 7:20 PM AST
Moon 12:25 AM AST (9/14) 1:41 PM AST (9/14)
Length of Visible Light 12h 57m
Length of Day
12h 14m
Waning Crescent, 34% of the Moon is Illuminated
Sep 14
Waning Crescent
Sep 20
New
Sep 27
First Quarter
Oct 5
Full
Oct 12
Last Quarter

Hourly Weather History & Observations

Time (AST) Temp. Heat Index Dew Point Humidity Pressure Visibility Wind Dir Wind Speed Gust Speed Precip Events Conditions
12:00 AM 78.8 °F - 77.0 °F 94% 29.95 in 1.6 mi Variable 2.3 mph - N/A   Mostly Cloudy
12:30 AM 78.8 °F - 77.0 °F 94% 29.95 in 6.2 mi South 4.6 mph - N/A Rain , Thunderstorm Light Rain
1:00 AM 77.0 °F - 75.2 °F 94% 29.95 in 5.6 mi WSW 10.4 mph - N/A Rain Rain
1:30 AM 77.0 °F - 75.2 °F 94% 29.95 in 6.2 mi SE 5.8 mph - N/A   Mostly Cloudy
2:00 AM 76 °F - 75 °F 95% 29.93 in 7 mi ESE 5.8 mph - - Rain Light Rain
2:00 AM 77.0 °F - 75.2 °F 94% 29.92 in 6.2 mi ESE 5.8 mph - N/A Rain Light Rain
2:30 AM 77.0 °F - 75.2 °F 94% 29.92 in 5.0 mi South 3.5 mph - N/A Rain Light Rain
3:00 AM 77.0 °F - 77.0 °F 100% 29.92 in 6.2 mi South 4.6 mph - N/A Rain Light Rain
3:30 AM 77.0 °F - 77.0 °F 100% 29.92 in 6.2 mi SE 5.8 mph - N/A   Overcast
4:00 AM 77.0 °F - 77.0 °F 100% 29.92 in 5.6 mi Variable 2.3 mph - N/A   Unknown
4:30 AM 78.8 °F - 77.0 °F 94% 29.92 in 6.2 mi Variable 4.6 mph - N/A   Overcast
5:00 AM 78.8 °F - 77.0 °F 94% 29.95 in 6.2 mi Calm Calm - N/A   Mostly Cloudy
5:30 AM 78.8 °F - 75.2 °F 89% 29.95 in 6.2 mi ESE 8.1 mph - N/A Rain Light Rain
6:00 AM 77.0 °F - 75.2 °F 94% 29.95 in 6.2 mi SE 5.8 mph - N/A   Overcast
6:30 AM 78.8 °F - 77.0 °F 94% 29.95 in 6.2 mi South 4.6 mph - N/A   Overcast
7:00 AM 78.8 °F - 77.0 °F 94% 29.95 in 6.2 mi ESE 5.8 mph - N/A   Mostly Cloudy
7:30 AM 78.8 °F - 75.2 °F 89% 29.98 in 6.2 mi NE 4.6 mph - N/A Thunderstorm Thunderstorm
8:00 AM 79 °F - 76 °F 87% 29.99 in 1 mi East 5.8 mph - -   Mist
8:00 AM 78.8 °F - 75.2 °F 89% 29.98 in - East 5.8 mph - N/A   Mostly Cloudy
8:30 AM 78.8 °F - 77.0 °F 94% 30.01 in 6.2 mi Variable 2.3 mph - N/A   Scattered Clouds
9:00 AM 80.6 °F 88.1 °F 78.8 °F 94% 30.01 in 6.2 mi East 6.9 mph - N/A Rain , Thunderstorm Heavy Rain
9:30 AM 78.8 °F - 77.0 °F 94% 30.01 in 6.2 mi East 8.1 mph - N/A Thunderstorm Mostly Cloudy
10:00 AM 75.2 °F - 73.4 °F 94% 30.01 in - SW 8.1 mph - N/A Fog , Rain , Thunderstorm Rain
10:30 AM 77.0 °F - 77.0 °F 100% 30.01 in 6.2 mi South 4.6 mph - N/A Thunderstorm Thunderstorm
11:00 AM 78.8 °F - 77.0 °F 94% 30.01 in 6.2 mi ESE 11.5 mph - N/A Thunderstorm Mostly Cloudy
11:30 AM 78.8 °F - 77.0 °F 94% 29.98 in 6.2 mi SE 5.8 mph - N/A   Unknown
12:00 PM 80.6 °F 87.1 °F 77.0 °F 89% 29.98 in - ESE 8.1 mph - N/A   Clear
12:30 PM 82.4 °F 90.9 °F 77.0 °F 84% 29.98 in - ESE 8.1 mph - N/A   Clear
1:00 PM 84.2 °F 94.1 °F 77.0 °F 79% 29.95 in - SE 8.1 mph - N/A   Clear
1:30 PM 86.0 °F 99.3 °F 78.8 °F 79% 29.95 in 6.2 mi ESE 10.4 mph - N/A   Partly Cloudy
2:00 PM 87 °F - 78 °F 70% 29.95 in 34 mi SE 16.1 mph - -   Clear
2:00 PM 87.8 °F 102.5 °F 78.8 °F 75% 29.95 in 6.2 mi SE 16.1 mph - N/A   Mostly Cloudy
2:30 PM 87.8 °F 102.5 °F 78.8 °F 75% 29.92 in 6.2 mi SSE 13.8 mph - N/A   Mostly Cloudy
3:00 PM 86.0 °F 96.9 °F 77.0 °F 74% 29.92 in 6.2 mi SE 13.8 mph - N/A   Scattered Clouds
3:30 PM 84.2 °F 92.3 °F 75.2 °F 74% 29.92 in 6.2 mi SE 13.8 mph - N/A   Partly Cloudy
4:00 PM 84.2 °F 94.1 °F 77.0 °F 79% 29.92 in 6.2 mi ESE 11.5 mph - N/A   Scattered Clouds
4:30 PM 84.2 °F 94.1 °F 77.0 °F 79% 29.92 in 6.2 mi SE 6.9 mph - N/A   Partly Cloudy
5:00 PM 84.2 °F 94.1 °F 77.0 °F 79% 29.95 in 6.2 mi SE 8.1 mph - N/A   Mostly Cloudy
5:30 PM 84.2 °F 94.1 °F 77.0 °F 79% 29.95 in 6.2 mi South 6.9 mph - N/A   Mostly Cloudy
6:00 PM 82.4 °F 89.5 °F 75.2 °F 79% 29.95 in 6.2 mi East 4.6 mph - N/A   Scattered Clouds
6:30 PM 80.6 °F 86.2 °F 75.2 °F 84% 29.95 in 6.2 mi West 3.5 mph - N/A   Partly Cloudy
7:00 PM 78.8 °F - 75.2 °F 89% 29.98 in 6.2 mi WNW 3.5 mph - N/A   Scattered Clouds
7:30 PM 78.8 °F - 75.2 °F 89% 29.98 in 0.9 mi South 4.6 mph - N/A Fog , Rain Light Rain
8:00 PM 78 °F - 75 °F 88% 30.00 in 14 mi East 2.3 mph - -   Clear
8:00 PM 77.0 °F - 75.2 °F 94% 29.98 in 6.2 mi Variable 2.3 mph - N/A   Scattered Clouds
8:30 PM 78.8 °F - 73.4 °F 83% 30.01 in 6.2 mi ESE 11.5 mph - N/A   Mostly Cloudy
9:00 PM 77.0 °F - 75.2 °F 94% 30.01 in 6.2 mi SSW 6.9 mph - N/A   Mostly Cloudy
9:30 PM 77.0 °F - 75.2 °F 94% 30.01 in 6.2 mi SSW 3.5 mph - N/A   Mostly Cloudy
10:00 PM 77.0 °F - 75.2 °F 94% 30.01 in 6.2 mi Variable 2.3 mph - N/A   Scattered Clouds
10:30 PM 77.0 °F - 75.2 °F 94% 30.01 in 5.6 mi Calm Calm - N/A   Partly Cloudy
11:00 PM 77.0 °F - 75.2 °F 94% 30.01 in 6.2 mi East 2.3 mph - N/A   Partly Cloudy
11:30 PM 77.0 °F - 75.2 °F 94% 29.98 in 6.2 mi NE 2.3 mph - N/A   Partly Cloudy